�������l�o���
Date,Time,MP-1(��Sv/h),MP-2(��Sv/h),MP-3(��Sv/h),MP-4(��Sv/h),MP-5(��Sv/h),MP-6(��Sv/h),MP-7(��Sv/h),MP-8(��Sv/h),����,����(m/s),���J
2018/03/19,00:00,0.868,1.456,0.906,1.699,1.155,0.486,0.856,0.823,��쐼,4.5,��
2018/03/19,00:10,0.869,1.457,0.908,1.697,1.156,0.486,0.855,0.821,�쐼,4.1,��
2018/03/19,00:20,0.869,1.458,0.907,1.701,1.155,0.487,0.857,0.821,��쐼,3.7,��
2018/03/19,00:30,0.868,1.456,0.907,1.696,1.155,0.488,0.855,0.821,��쐼,4.7,��
2018/03/19,00:40,0.867,1.457,0.908,1.695,1.155,0.487,0.856,0.821,��쐼,4.9,��
2018/03/19,00:50,0.869,1.456,0.907,1.697,1.155,0.489,0.855,0.822,��쐼,4.5,��
2018/03/19,01:00,0.868,1.457,0.906,1.696,1.155,0.488,0.853,0.822,��쐼,4.8,��
2018/03/19,01:10,0.869,1.457,0.907,1.698,1.156,0.487,0.856,0.824,��쐼,6.3,��
2018/03/19,01:20,0.867,1.454,0.907,1.696,1.158,0.487,0.855,0.820,��쐼,5.8,��
2018/03/19,01:30,0.868,1.457,0.909,1.698,1.156,0.487,0.855,0.823,��쐼,5.8,��
2018/03/19,01:40,0.871,1.455,0.906,1.697,1.156,0.488,0.856,0.822,�쐼,5.0,��
2018/03/19,01:50,0.868,1.458,0.908,1.699,1.154,0.487,0.855,0.822,��쐼,5.6,��
2018/03/19,02:00,0.869,1.456,0.906,1.697,1.153,0.487,0.856,0.823,��쐼,5.9,��
2018/03/19,02:10,0.871,1.457,0.908,1.701,1.153,0.489,0.856,0.823,��쐼,6.7,��
2018/03/19,02:20,0.868,1.456,0.905,1.699,1.155,0.488,0.854,0.822,��,6.0,��
2018/03/19,02:30,0.868,1.456,0.906,1.697,1.155,0.487,0.858,0.823,��쐼,5.5,��
2018/03/19,02:40,0.869,1.455,0.906,1.698,1.156,0.487,0.856,0.822,��,6.9,��
2018/03/19,02:50,0.869,1.459,0.907,1.699,1.156,0.487,0.856,0.822,��,8.2,��
2018/03/19,03:00,0.868,1.456,0.908,1.697,1.154,0.489,0.857,0.823,��쐼,4.6,��
2018/03/19,03:10,0.869,1.457,0.906,1.698,1.156,0.487,0.855,0.822,�쐼,2.3,��
2018/03/19,03:20,0.869,1.458,0.908,1.698,1.155,0.488,0.855,0.824,���쐼,2.3,��
2018/03/19,03:30,0.868,1.457,0.906,1.699,1.156,0.488,0.856,0.821,���k��,2.2,��
2018/03/19,03:40,0.868,1.459,0.907,1.700,1.155,0.486,0.856,0.823,�k�k��,3.4,��
2018/03/19,03:50,0.867,1.458,0.908,1.699,1.155,0.487,0.856,0.824,�k,5.1,��
2018/03/19,04:00,0.869,1.458,0.906,1.699,1.155,0.489,0.855,0.821,�k,5.2,��
2018/03/19,04:10,0.869,1.459,0.906,1.698,1.156,0.487,0.854,0.823,�k,6.0,��
2018/03/19,04:20,0.868,1.456,0.909,1.696,1.155,0.486,0.856,0.823,�k�k��,5.2,��
2018/03/19,04:30,0.870,1.456,0.909,1.697,1.156,0.488,0.856,0.822,�k�k��,5.7,��
2018/03/19,04:40,0.869,1.459,0.908,1.698,1.156,0.489,0.854,0.822,�k��,5.5,��
2018/03/19,04:50,0.869,1.458,0.907,1.702,1.155,0.487,0.855,0.822,�k�k��,4.8,��
2018/03/19,05:00,0.867,1.455,0.906,1.698,1.155,0.486,0.856,0.822,�k�k��,3.4,��
2018/03/19,05:10,0.870,1.455,0.907,1.700,1.157,0.489,0.856,0.822,�k,3.0,��
2018/03/19,05:20,0.869,1.455,0.907,1.697,1.157,0.486,0.856,0.822,�k,2.9,��
2018/03/19,05:30,0.869,1.458,0.907,1.697,1.156,0.488,0.857,0.823,�k,2.6,��
2018/03/19,05:40,0.868,1.457,0.907,1.700,1.153,0.488,0.856,0.824,�k�k��,1.4,��
2018/03/19,05:50,0.869,1.457,0.908,1.701,1.156,0.487,0.855,0.823,�k�k��,1.5,��
2018/03/19,06:00,0.869,1.456,0.907,1.699,1.156,0.487,0.857,0.823,�k�k��,2.0,��
2018/03/19,06:10,0.869,1.458,0.907,1.700,1.153,0.485,0.854,0.823,�k��,2.6,��
2018/03/19,06:20,0.870,1.456,0.906,1.699,1.154,0.487,0.857,0.824,�k�k��,3.0,��
2018/03/19,06:30,0.869,1.459,0.907,1.700,1.155,0.486,0.857,0.823,�k��,4.9,��
2018/03/19,06:40,0.868,1.458,0.907,1.700,1.152,0.489,0.856,0.823,�k�k��,5.1,��
2018/03/19,06:50,0.868,1.457,0.905,1.698,1.158,0.487,0.855,0.824,�k��,6.5,��
2018/03/19,07:00,0.868,1.459,0.907,1.700,1.158,0.485,0.856,0.824,�k��,7.1,��
2018/03/19,07:10,0.870,1.457,0.908,1.700,1.155,0.487,0.853,0.823,�k��,7.1,��
2018/03/19,07:20,0.869,1.456,0.906,1.699,1.157,0.487,0.855,0.822,�k��,8.2,��
2018/03/19,07:30,0.870,1.457,0.907,1.699,1.155,0.488,0.854,0.824,�k��,7.0,��
2018/03/19,07:40,0.868,1.458,0.906,1.700,1.154,0.488,0.855,0.825,�k��,6.2,��
2018/03/19,07:50,0.869,1.457,0.907,1.699,1.154,0.487,0.855,0.823,�k��,5.7,��
2018/03/19,08:00,0.869,1.457,0.910,1.699,1.156,0.489,0.855,0.823,���k��,5.6,��
2018/03/19,08:10,0.869,1.458,0.906,1.697,1.155,0.488,0.855,0.823,�k��,4.7,��
2018/03/19,08:20,0.869,1.455,0.905,1.699,1.157,0.486,0.854,0.822,�k��,4.8,��
2018/03/19,08:30,0.869,1.458,0.905,1.702,1.156,0.486,0.856,0.823,�k��,2.8,��
2018/03/19,08:40,0.869,1.459,0.908,1.699,1.158,0.486,0.854,0.824,���k��,2.0,��
2018/03/19,08:50,0.871,1.458,0.906,1.699,1.157,0.486,0.855,0.823,���k��,2.6,��
2018/03/19,09:00,0.872,1.461,0.907,1.701,1.158,0.486,0.855,0.824,��,1.7,��
2018/03/19,09:10,0.872,1.459,0.910,1.700,1.159,0.487,0.855,0.824,��,3.6,��
2018/03/19,09:20,0.870,1.461,0.907,1.702,1.159,0.485,0.856,0.824,��,3.6,��
2018/03/19,09:30,0.869,1.461,0.909,1.701,1.151,0.488,0.856,0.822,�k,1.4,��
2018/03/19,09:40,0.872,1.462,0.907,1.698,1.155,0.488,0.854,0.825,��,0.9,��
2018/03/19,09:50,0.873,1.460,0.906,1.702,1.157,0.487,0.856,0.822,��,0.6,��
2018/03/19,10:00,0.871,1.460,0.907,1.703,1.154,0.487,0.856,0.823,�k,0.8,��
2018/03/19,10:10,0.870,1.460,0.910,1.704,1.157,0.488,0.855,0.823,��,1.4,��
2018/03/19,10:20,0.871,1.458,0.908,1.703,1.155,0.486,0.857,0.823,���k��,3.2,��
2018/03/19,10:30,0.870,1.460,0.908,1.705,1.157,0.485,0.857,0.823,��,4.5,��
2018/03/19,10:40,0.869,1.454,0.909,1.704,1.155,0.486,0.856,0.823,��,3.3,��
2018/03/19,10:50,0.870,1.456,0.906,1.703,1.155,0.486,0.856,0.820,��,2.6,��
2018/03/19,11:00,0.869,1.457,0.908,1.708,1.155,0.485,0.857,0.821,�쐼,2.9,��
2018/03/19,11:10,0.870,1.459,0.908,1.704,1.157,0.484,0.856,0.822,��,5.1,��
2018/03/19,11:20,0.868,1.454,0.907,1.706,1.158,0.486,0.858,0.819,�쐼,2.6,��
2018/03/19,11:30,0.871,1.457,0.908,1.703,1.155,0.487,0.857,0.821,���쐼,4.9,��
2018/03/19,11:40,0.870,1.460,0.906,1.707,1.154,0.488,0.857,0.824,�쐼,5.7,��
2018/03/19,11:50,0.870,1.461,0.909,1.708,1.154,0.487,0.857,0.821,�쐼,6.0,��
2018/03/19,12:00,0.872,1.458,0.907,1.708,1.156,0.488,0.859,0.822,���쐼,5.0,��
2018/03/19,12:10,0.873,1.459,0.908,1.711,1.159,0.488,0.858,0.821,���쐼,7.0,��
2018/03/19,12:20,0.870,1.459,0.908,1.708,1.159,0.489,0.858,0.822,���쐼,7.1,��
2018/03/19,12:30,0.873,1.458,0.909,1.707,1.161,0.487,0.856,0.823,��,3.6,��
2018/03/19,12:40,0.870,1.461,0.908,1.706,1.158,0.487,0.854,0.820,�쐼,3.0,��
2018/03/19,12:50,0.869,1.461,0.907,1.706,1.159,0.488,0.858,0.821,�쐼,3.9,��
2018/03/19,13:00,0.871,1.457,0.910,1.707,1.158,0.488,0.859,0.823,���쐼,8.0,��
2018/03/19,13:10,0.872,1.460,0.906,1.709,1.158,0.488,0.859,0.821,���쐼,8.9,��
2018/03/19,13:20,0.872,1.460,0.907,1.709,1.159,0.488,0.858,0.820,���쐼,9.6,��
2018/03/19,13:30,0.871,1.458,0.908,1.709,1.159,0.488,0.860,0.823,���쐼,8.4,��
2018/03/19,13:40,0.871,1.461,0.907,1.710,1.157,0.486,0.858,0.822,���쐼,8.4,��
2018/03/19,13:50,0.873,1.458,0.908,1.709,1.159,0.487,0.859,0.821,��,8.7,��
2018/03/19,14:00,0.871,1.458,0.908,1.710,1.157,0.488,0.858,0.822,��,9.7,��
2018/03/19,14:10,0.870,1.459,0.908,1.711,1.160,0.490,0.858,0.821,���k��,8.7,��
2018/03/19,14:20,0.871,1.457,0.908,1.706,1.159,0.486,0.858,0.822,��,9.0,��
2018/03/19,14:30,0.871,1.457,0.910,1.712,1.161,0.488,0.859,0.823,��,8.7,��
2018/03/19,14:40,0.871,1.462,0.909,1.704,1.160,0.488,0.858,0.822,��,7.5,��
2018/03/19,14:50,0.871,1.461,0.909,1.708,1.160,0.491,0.857,0.822,��,7.6,��
2018/03/19,15:00,0.870,1.457,0.910,1.707,1.159,0.488,0.857,0.821,��,5.0,��
2018/03/19,15:10,0.870,1.460,0.910,1.710,1.158,0.488,0.857,0.822,��,5.8,��
2018/03/19,15:20,0.874,1.462,0.910,1.709,1.159,0.491,0.857,0.822,��,4.7,��
2018/03/19,15:30,0.873,1.459,0.909,1.708,1.163,0.487,0.858,0.822,��,5.3,��
2018/03/19,15:40,0.876,1.464,0.910,1.709,1.156,0.488,0.857,0.822,��,5.8,��
2018/03/19,15:50,0.875,1.467,0.910,1.711,1.158,0.489,0.858,0.824,��,5.8,��
2018/03/19,16:00,0.874,1.464,0.912,1.709,1.158,0.490,0.858,0.821,��,4.1,��
2018/03/19,16:10,0.873,1.465,0.912,1.709,1.159,0.488,0.857,0.823,�k�k��,1.4,��
2018/03/19,16:20,0.872,1.462,0.912,1.709,1.158,0.491,0.857,0.823,�k��,2.6,��
2018/03/19,16:30,0.874,1.462,0.913,1.708,1.157,0.489,0.856,0.824,�k�k��,2.6,��
2018/03/19,16:40,0.872,1.463,0.910,1.708,1.160,0.488,0.858,0.827,�k�k��,2.2,��
2018/03/19,16:50,0.873,1.462,0.909,1.708,1.158,0.490,0.857,0.825,�k�k��,2.2,��
2018/03/19,17:00,0.873,1.461,0.909,1.709,1.159,0.489,0.856,0.826,�k,2.5,��
2018/03/19,17:10,0.874,1.462,0.911,1.708,1.161,0.490,0.855,0.826,�k�k��,2.0,��
2018/03/19,17:20,0.873,1.464,0.909,1.709,1.160,0.489,0.858,0.825,�k,1.9,��
2018/03/19,17:30,0.873,1.463,0.911,1.709,1.161,0.490,0.857,0.825,�k�k��,2.8,��
2018/03/19,17:40,0.872,1.464,0.911,1.707,1.160,0.489,0.857,0.826,�k�k��,2.8,��
2018/03/19,17:50,0.872,1.464,0.910,1.706,1.162,0.489,0.856,0.824,�k�k��,2.9,��
2018/03/19,18:00,0.871,1.458,0.909,1.707,1.160,0.489,0.857,0.824,�k�k��,3.2,��
2018/03/19,18:10,0.873,1.459,0.911,1.707,1.160,0.490,0.859,0.825,�k�k��,3.0,��
2018/03/19,18:20,0.870,1.462,0.912,1.705,1.161,0.490,0.856,0.826,�k,2.2,��
2018/03/19,18:30,0.871,1.461,0.909,1.706,1.160,0.489,0.857,0.822,�k��,3.4,��
2018/03/19,18:40,0.873,1.461,0.909,1.708,1.162,0.490,0.857,0.825,���k��,2.3,��
2018/03/19,18:50,0.873,1.463,0.910,1.708,1.161,0.488,0.857,0.824,���k��,5.4,��
2018/03/19,19:00,0.872,1.462,0.909,1.708,1.161,0.489,0.858,0.825,���k��,3.8,��
2018/03/19,19:10,0.870,1.464,0.910,1.707,1.160,0.489,0.858,0.825,��,3.6,��
2018/03/19,19:20,0.871,1.462,0.911,1.706,1.162,0.489,0.857,0.825,��,3.1,��
2018/03/19,19:30,0.872,1.464,0.912,1.707,1.161,0.487,0.855,0.824,���k��,3.0,��
2018/03/19,19:40,0.870,1.461,0.909,1.706,1.159,0.490,0.857,0.827,���k��,4.5,��
2018/03/19,19:50,0.870,1.462,0.909,1.707,1.160,0.489,0.856,0.825,���k��,4.9,��
2018/03/19,20:00,0.872,1.464,0.908,1.704,1.161,0.490,0.857,0.826,���k��,5.1,��
2018/03/19,20:10,0.871,1.461,0.908,1.706,1.160,0.488,0.857,0.824,�k��,5.1,��
2018/03/19,20:20,0.871,1.462,0.909,1.710,1.161,0.490,0.857,0.823,���k��,6.2,��
2018/03/19,20:30,0.871,1.462,0.910,1.708,1.158,0.488,0.857,0.823,���k��,6.7,��
2018/03/19,20:40,0.871,1.464,0.911,1.709,1.160,0.488,0.857,0.822,���k��,5.4,��
2018/03/19,20:50,0.871,1.462,0.909,1.709,1.158,0.488,0.857,0.824,���k��,7.2,��
2018/03/19,21:00,0.869,1.465,0.909,1.706,1.160,0.487,0.856,0.824,���k��,6.2,��
2018/03/19,21:10,0.873,1.461,0.910,1.704,1.161,0.487,0.855,0.825,�k��,3.8,��
2018/03/19,21:20,0.870,1.460,0.910,1.709,1.160,0.487,0.855,0.824,���k��,3.1,�L
2018/03/19,21:30,0.870,1.462,0.908,1.704,1.160,0.487,0.856,0.824,���k��,4.0,�L
2018/03/19,21:40,0.872,1.462,0.911,1.709,1.161,0.487,0.858,0.825,���k��,3.4,�L
2018/03/19,21:50,0.873,1.461,0.909,1.708,1.160,0.491,0.857,0.825,��,2.3,�L
2018/03/19,22:00,0.874,1.464,0.912,1.706,1.158,0.495,0.858,0.825,��,2.3,�L
2018/03/19,22:10,0.874,1.460,0.913,1.708,1.161,0.494,0.856,0.824,���k��,2.3,�L
2018/03/19,22:20,0.875,1.463,0.913,1.711,1.161,0.498,0.857,0.823,���k��,3.4,�L
2018/03/19,22:30,0.877,1.460,0.912,1.711,1.161,0.495,0.856,0.824,�k��,3.8,�L
2018/03/19,22:40,0.873,1.463,0.913,1.709,1.158,0.493,0.855,0.825,�k��,3.8,�L
2018/03/19,22:50,0.872,1.460,0.913,1.707,1.154,0.492,0.856,0.824,�k��,3.4,�L
2018/03/19,23:00,0.870,1.457,0.912,1.706,1.152,0.492,0.856,0.822,�k��,4.0,�L
2018/03/19,23:10,0.870,1.457,0.910,1.703,1.151,0.492,0.855,0.822,�k��,3.9,�L
2018/03/19,23:20,0.869,1.454,0.906,1.700,1.148,0.491,0.852,0.820,�k,3.6,�L
2018/03/19,23:30,0.865,1.448,0.906,1.699,1.148,0.489,0.851,0.821,�k,3.7,�L
2018/03/19,23:40,0.865,1.446,0.905,1.697,1.146,0.488,0.851,0.818,�k,5.0,�L
2018/03/19,23:50,0.864,1.447,0.904,1.696,1.141,0.489,0.851,0.819,�k�k��,5.7,�L
